This demonstration page uses our WeatherBlox Daily Observations layout. Learn more.

Left ArrowRight Arrow

Hourly Observations for February 23, 2016

Temp ( °F °C ) Dew Point ( °F °C ) Humidity (%) Winds ( mph kmh ) Pressure ( in mb ) Visibility ( mi km ) Precip ( " mm )
12:53 am 00:53 Clear 52 11.1 28 -2.2 40 40 N 7 11 30.09 1019 10 16 0.00 0.00
1:53 am 01:53 Clear 53 11.7 27 -2.8 37 37 NNW 9 15 30.07 1018 10 16 0.00 0.00
2:53 am 02:53 Clear 53 11.7 26 -3.3 35 35 NNW 6 9 30.06 1018 10 16 0.00 0.00
3:53 am 03:53 Clear 50 10 27 -2.8 41 41 NNW 6 9 30.05 1018 10 16 0.00 0.00
4:53 am 04:53 Clear 53 11.7 24 -4.4 32 32 NNW 8 13 30.05 1018 10 16 0.00 0.00
5:53 am 05:53 Clear 53 11.7 23 -5 31 31 N 10 17 30.06 1018 10 16 0.00 0.00
6:53 am 06:53 Sunny 48 8.9 27 -2.8 44 44 N 7 11 30.05 1018 10 16 0.00 0.00
7:53 am 07:53 Sunny 50 10 27 -2.8 41 41 NW 7 11 30.06 1018 10 16 0.00 0.00
8:53 am 08:53 Sunny 56 13.3 28 -2.2 34 34 NNW 5 7 30.09 1019 10 16 0.00 0.00
9:53 am 09:53 Sunny 62 16.7 24 -4.4 23 23 NE 9 15 30.09 1019 10 16 0.00 0.00
10:53 am 10:53 Sunny 61 16.1 34 1.1 36 36 S 5 7 30.08 1019 10 16 0.00 0.00
11:53 am 11:53 Sunny 65 18.3 31 -0.6 28 28 ESE 3 6 30.07 1018 10 16 0.00 0.00
12:53 pm 12:53 Sunny 67 19.4 30 -1.1 25 25 SSE 3 6 30.04 1017 10 16 0.00 0.00
1:53 pm 13:53 Sunny 68 20 32 0 26 26 SSE 6 9 30.02 1017 10 16 0.00 0.00
2:53 pm 14:53 Sunny 69 20.6 29 -1.7 22 22 SE 3 6 30.01 1016 10 16 0.00 0.00
3:53 pm 15:53 Sunny 67 19.4 34 1.1 30 30 SE 6 9 30.01 1016 10 16 0.00 0.00
4:53 pm 16:53 Sunny 65 18.3 41 5 42 42 SSE 8 13 30.01 1016 10 16 0.00 0.00
5:53 pm 17:53 Sunny 63 17.2 41 5 45 45 Calm 30.01 1016 10 16 0.00 0.00
6:53 pm 18:53 Clear 59 15 43 6.1 56 56 Calm 30.04 1017 10 16 0.00 0.00
7:53 pm 19:53 Clear 55 12.8 42 5.6 62 62 N 3 6 30.05 1018 10 16 0.00 0.00
8:53 pm 20:53 Clear 52 11.1 40 4.4 64 64 Calm 30.07 1018 10 16 0.00 0.00
9:53 pm 21:53 Clear 50 10 38 3.3 63 63 WNW 6 9 30.09 1019 10 16 0.00 0.00
10:53 pm 22:53 Clear 52 11.1 40 4.4 64 64 NE 3 6 30.09 1019 10 16 0.00 0.00
11:53 pm 23:53 Cloudy 51 10.6 41 5 69 69 Calm 30.09 1019 10 16 0.00 0.00

Powered by AerisWeather